www.pogodaiklimat.ru

Погода и климат >> Архив погоды >> Индия >> Cannanore


ПОГОДА в Cannanore

  • Прогноз погоды в Cannanore
  • Монитор погоды в Cannanore
  • Климат города

АРХИВ ПОГОДЫ в Cannanore

Время (UTC), дата Ветер
(напр.,м/с)
 
Видим.   Явления Облачность Т
(С)
Тd
(С)
f
(%)
Тe
(С)
Тes
(С)
Комфортность P
(гПа)
Po
(гПа)
Тmin
(С)
Tmax
(С)
R
(мм)
R24
(мм)
S
(см)
09 10.12 ЮЗ 2 10 км 9/1 600 м
[Sc Cs]
+31.6 +24.8 67 +45 +53 опасность
перегрева
1009.9 1010.0
12 10.12 З 2 10 км 6/3 600 м
[Sc Ac trans Ci fib]
+29.0 +23.8 74 +40 +40 очень
душно
1009.2 1009.0 +32.7
00 11.12 штиль 0 2000 м дымка 3/0
[Ci fib]
+24.8 +23.9 95 +34 +34 очень
душно
1010.5 1011.0
03 11.12 штиль 0 4000 м мгла 1/0
[Ci fib]
+25.4 +22.7 85 +33 +38 очень
душно
1012.8 1013.0 +24.0 +32.7
06 11.12 ЮЗ 2 4000 м 3/0
[Ci fib]
+31.2 +23.4 63 +42 +56 опасность
перегрева
1012.3 1012.0
09 11.12 З 3 10 км 1/0
[Ci fib]
+31.6 +23.5 62 +42 +51 опасность
перегрева
1009.6 1010.0
12 11.12 З 3 4000 м 1/0
[Ci fib]
+28.8 +23.9 75 +40 +40 очень
душно
1009.1 1009.0 +32.3
00 12.12 штиль 0 2000 м дымка 3/0 600 м
[Ci fib]
+24.6 +22.8 90 +33 +33 очень
душно
1011.6 1012.0
03 12.12 штиль 0 4000 м мгла 5/1 600 м
[Cu Sc Ac trans Ci fib]
+25.6 +22.9 85 +34 +37 очень
душно
1013.6 1014.0 +24.0 +32.3
06 12.12 З 2 10 км 4/1 600 м
[Sc Ci fib]
+31.2 +21.8 57 +40 +51 опасность
солнечного
удара
1012.8 1013.0
09 12.12 СЗ 3 10 км 1/0
[Ci fib]
+31.4 +22.3 59 +41 +49 опасность
перегрева
1010.4 1010.0
12 12.12 СЗ 3 4000 м 1/0
[Ci fib]
+28.8 +22.6 69 +38 +38 очень
душно
1010.7 1011.0 +32.2
00 13.12 штиль 0 2000 м дымка 3/0
[Ci fib]
+24.0 +22.8 93 +32 +32 очень
душно
1011.4 1011.0
03 13.12 штиль 0 4000 м мгла 4/0
[Ci fib]
+25.0 +22.3 85 +33 +36 очень
душно
1014.4 1014.0 +23.3 +32.2
06 13.12 нст 1 10 км 4/0
[Ci fib]
+30.6 +20.4 55 +38 +52 опасность
солнечного
удара
1013.6 1014.0
09 13.12 З 3 10 км 4/0
[Ci sp]
+31.4 +21.3 55 +39 +47 очень
душно
1010.0 1010.0
12 13.12 З 2 4000 м 4/0
[Ci fib]
+29.4 +23.0 68 +39 +40 очень
душно
1009.9 1010.0 +32.5
00 14.12 штиль 0 2000 м дымка 4/3 600 м
[Sc Ci fib]
+24.6 +23.4 93 +33 +33 очень
душно
1011.7 1012.0
03 14.12 штиль 0 4000 м мгла 4/1 600 м
[Sc Ci fib]
+25.8 +22.9 84 +34 +38 очень
душно
1013.7 1014.0 +24.1 +32.5
06 14.12 штиль 0 10 км 4/1 600 м
[Sc Ci sp]
+31.0 +20.1 52 +37 +53 опасность
солнечного
удара
1013.3 1013.0
09 14.12 ЮЗ 1 10 км 1/0
[Ci fib]
+32.4 +21.5 53 +41 +53 опасность
перегрева
1010.1 1010.0
12 14.12 СЗ 2 10 км 3/0
[Ci fib]
+29.4 +21.4 62 +37 +38 очень
душно
1010.0 1010.0 +32.7
00 15.12 штиль 0 2000 м дымка 4/0 600 м
[Ci fib]
+23.6 +21.8 90 +30 +30 очень
душно
1010.8 1011.0
03 15.12 СВ 1 4000 м мгла 3/0
[Ci sp]
+25.4 +19.9 72 +31 +35 очень
душно
1013.2 1013.0 +23.4 +32.7
06 15.12 СВ 1 10 км 1/0
[Ci fib]
+31.0 +17.2 44 +35 +51 опасность
солнечного
удара
1012.5 1013.0
09 15.12 ЮЗ 2 10 км 1/0
[Ci fib]
+33.6 +22.6 53 +43 +54 опасность
перегрева
1008.8 1009.0
12 15.12 З 2 10 км 3/0
[Ci fib]
+29.8 +23.7 70 +41 +41 опасность
перегрева
1009.3 1009.0 +34.4
00 16.12 нст 1 2000 м дымка 1/0
[Ci fib]
+23.6 +18.9 75 +28 +28 душно 1011.6 1012.0
03 16.12 В 3 4000 м мгла 10/5 600 м
[Sc diur, vesp Cs]
+25.4 +23.0 87 +34 +35 очень
душно
1013.4 1013.0 +23.4 +34.4
06 16.12 В 2 10 км 9/4 600 м
[Sc Cs]
+28.4 +15.4 45 +31 +39 душно 1013.0 1013.0
09 16.12 нст 1 10 км 8/1 600 м
[Sc Ci fib]
+31.6 +17.6 43 +36 +45 очень
душно
1009.7 1010.0
12 16.12 З 1 10 км 6/0 300 м
[Ci fib]
+29.0 +18.4 53 +34 +34 очень
душно
1009.2 1009.0 +32.0
00 17.12 СВ 2 2000 м мгла 3/0
[Ci fib]
+21.4 +18.9 86 +26 +26 душно 1011.3 1011.0
03 17.12 С 1 4000 м мгла 8/1 600 м
[Cu hum Ci fib]
+22.8 +17.3 71 +28 +31 душно 1013.0 1013.0 +20.9 +32.0
06 17.12 СВ 1 10 км 6/0
[Cs]
+30.2 +18.1 48 +35 +49 очень
душно
1012.7 1013.0

 

Местоположение метеостанции Cannanore (Kerala, Индия): широта 11.83 долгота 75.33 высота над уровнем моря 18 м.

В архиве по умолчанию представлена погода в Cannanore за последнюю неделю. Архивные данные за месяц целиком и за предыдущие месяцы, начиная с января 2011 года, Вы можете получить, выбрав интересующий диапазон дат из раскрывающегося списка и нажав кнопку "Ввод!".


*Определитесь, кто Вы:
робот инопланетянин человек

Внимание! Время в таблицах - всемирное. Для получения местного времени необходимо прибавить поправку, которая в Cannanore равна 5.5 ч.

Смотрите также архив погоды в соседних городах и на ближайших метеорологических станциях:

Погода в Madikeri (Karnataka, Индия) (79 км)
Погода в Kozhikode (Kerala, Индия) (81 км)
Погода в Karipur (Kerala, Индия) (103 км)
Погода в Mangalore Airport (Karnataka, Индия) (131 км)
Погода в Mangalore (Karnataka, Индия) (136 км)
Погода в Mysore (Karnataka, Индия) (158 км)
Погода в Udhagamandalam (Tamil Nadu, Индия) (160 км)
Погода в Chickmagalur (Karnataka, Индия) (164 км)
Погода в Hassan (Karnataka, Индия) (167 км)
Погода в Coonoor (Tamil Nadu, Индия) (169 км)

Пояснения к столбцам:

Ветер - указаны скорость ветра в м/с - средняя за 10 мин, порывы в срок и между сроками (в фигурных скобках) и направление, откуда дует ветер: С - северный, СВ - северо-восточный, В - восточный, ЮВ - юго-восточный, Ю - южный, ЮЗ - юго-западный, З - западный, СЗ - северо-западный.
Видимость - горизонтальная дальность видимости в метрах или километрах. При видимости от 1 до 10 км при отсутствии осадков обычно наблюдается дымка, при ухудшении видимости до 1 км и менее - туман. В сухую погоду видимость может ухудшаться дымом, пылью или мглою.
Явления - указаны атмосферные явления, наблюдавшиеся в срок или в последний час перед сроком; фигурными скобками обозначены явления, наблюдавшиеся между сроками (за 1-3 часа до срока); квадратными скобками обозначены град или гололедные отложения с указанием их диаметра в мм.
Облачность - указаны через наклонную черту общая и нижняя облачность в баллах и высота нижней границы облаков в метрах; квадратными скобками обозначены формы облаков: Ci - перистые, Cs - перисто-слоистые, Cc - перисто-кучевые, Ac - высококучевые, As - высокослоистые, Sc - слоисто-кучевые, Ns - слоисто-дождевые, Cu - кучевые, Cb - кучево-дождевые. Подробнее классификацию облаков см. в Атласе облаков (PDF).
T - Температура воздуха - температура, измеренная на высоте 2 м над землей.
Td - Температура точки росы - температура, при понижении до которой содержащийся в воздухе водяной пар достигнет насыщения.
f - Относительная влажность воздуха - влажноcть воздуха, измеренная на высоте 2 м над землей.
Te - Эффективная температура - температура, которую ощущает одетый по сезону человек в тени. Характеристика душности погоды. При расчете учитывается влияние влажности воздуха и скорости ветра на теплоощущения человека.
Tes - Эффективная температура на солнце - температура, которую ощущает человек, с поправкой на солнечный нагрев. Характеристика знойности погоды. Зависит от высоты солнца над горизонтом, облачности и скорости ветра. Ночью, в пасмурную погоду, а также при ветре 12 м/с и более поправка равна нулю.
P - Атмосферное давление - приведенное к уровню моря атмосферное давление.
Po - Атмосферное давление - измеренное на уровне метеостанции атмосферное давление.
Tmin - Минимальная температура - минимум температуры воздуха на высоте 2 м над землей.
Tmax - Максимальная температура - максимум температуры воздуха на высоте 2 м над землей.
R - Количество осадков - Количество выпавших осадков за период времени, мм. При наведении курсора мыши на число - период времени, за который выпало указанное количество осадков.
R24 - Количество осадков - Количество выпавших осадков за 24 часа, мм.
S - Снежный покров - Высота снежного покрова, см. При наведении курсора мыши на число - состояние снежного покрова и степень покрытия местности в баллах.